Terminal Aerodrome Forecast
Issued by NWS

Home | Current Version | Previous Version | Text Only | Print | Product List | Glossary Off
Versions: 1 2 3 4 5 6 7 8 9 10 11 12 13 14 15 16 17 18 19 20 21 22 23 24 25 26 27 28 29 30

896
FTUS43 KABR 202213 AAA
TAFATY
TAF AMD
KATY 202213Z 2022/2118 15010KT 1/4SM FG OVC002
     FM210300 14009KT 1SM BR OVC003
     FM210500 14008KT 1/2SM FG OVC003
     FM210900 13007KT 1/4SM FG OVC003
     FM211300 11006KT 5SM BR OVC003=

USA.gov is the U.S. government's official web portal to all federal, state and local government web resources and services.